Regional Weather Roundup
Issued by NWS

Home | Current Version | Previous Version | Graphics & Text | Print | Product List | Glossary On
Versions: 1 2 3 4 5 6 7 8 9 10 11 12 13 14 15 16 17 18 19 20 21 22 23 24 25 26 27 28 29 30 31 32 33 34 35 36 37 38 39 40 41 42 43 44 45 46 47 48 49 50
000
ASUS43 KOAX 301002
RWRNE

WEATHER ROUNDUP FOR NEBRASKA
NATIONAL WEATHER SERVICE OMAHA NE
500 AM CDT MON MAR 30 2015

NOTES: SATELLITE DATA IS BEING USED TO AUGMENT CLOUD COVER ABOVE
       12000 FEET.
       "FAIR" INDICATES FEW OR NO CLOUDS BELOW 12,000 FEET WITH NO
       SIGNIFICANT WEATHER AND/OR OBSTRUCTIONS TO VISIBILITY.

  * THESE STATIONS DO NOT REPORT WEATHER SUCH AS RAIN...SNOW OR FOG.

NEZ001>004-019>022-054>056-301100-
NEBRASKA PANHANDLE

CITY           SKY/WX    TMP DP  RH WIND       PRES   REMARKS
SCOTTSBLUFF    CLEAR     33  24  69 N5        30.04F WCI  29
ALLIANCE       CLEAR     33  21  61 S5        30.03F WCI  29
CHADRON        CLEAR     32  25  75 SW9       30.01F WCI  24
KIMBALL        CLEAR     34  23  64 W9        30.06S WCI  26
SIDNEY         CLEAR     43  23  45 SW15      30.05F
$$

NEZ057>060-069>072-079>082-301100-
SOUTHWEST NEBRASKA

CITY           SKY/WX    TMP DP  RH WIND       PRES   REMARKS
NORTH PLATTE   CLEAR     42  18  37 S8        30.08F
IMPERIAL         N/A     38  20  48 S6        30.09F WCI  33
MCCOOK         CLEAR     41  16  36 SW7       30.11F
$$

NEZ005>010-023>029-035>040-094-301100-
NORTH CENTRAL NEBRASKA

CITY           SKY/WX    TMP DP  RH WIND       PRES   REMARKS
VALENTINE      CLEAR     41  21  44 SW9       30.00F
AINSWORTH      CLEAR     45  17  31 SW16      30.01F
BROKEN BOW     PTCLDY    44  16  32 SW9       30.07F
O`NEILL        CLEAR     38  23  54 SW8       30.04F WCI  32
ORD            PTCLDY    29  18  63 CALM      30.07F
$$

NEZ041-046>049-061>064-073>077-083>087-301100-
SOUTH CENTRAL NEBRASKA

CITY           SKY/WX    TMP DP  RH WIND       PRES   REMARKS
GRAND ISLAND   CLOUDY    48  18  30 S10       30.10F
HASTINGS       CLOUDY    44  19  36 S8        30.11F
HEBRON         PTCLDY    38  25  60 CALM      30.15S
KEARNEY *      MOCLDY    45  18  33 S13       30.10F
$$

NEZ011>018-030>034-042>045-301100-
NORTHEAST NEBRASKA

CITY           SKY/WX    TMP DP  RH WIND       PRES   REMARKS
NORFOLK        PTCLDY    43  20  39 S5        30.06F
ALBION         MOCLDY    40  17  38 CALM      30.08F
BLAIR          CLEAR     38  24  55 S5        30.09F WCI  35
COLUMBUS *     PTCLDY    30  19  64 CALM      30.11S
FREMONT        CLEAR     33  25  74 CALM      30.10F
TEKAMAH        CLEAR     30  19  63 SE9       30.09F WCI  22
$$

NEZ050>053-065>068-078-088>093-301100-
SOUTHEAST NEBRASKA

CITY           SKY/WX    TMP DP  RH WIND       PRES   REMARKS
LINCOLN        CLOUDY    35  27  72 S6        30.12F WCI  30
OMAHA EPPLEY   PTCLDY    34  26  72 SE8       30.12R WCI  27
FALLS CITY     PTCLDY    32  27  81 CALM      30.14F
PLATTSMOUTH    PTCLDY    40  22  47 SW5       30.12R
$$

NEZ044-045-051>053-067-301100-
OMAHA AREA

CITY           SKY/WX    TMP DP  RH WIND       PRES   REMARKS
OMAHA EPPLEY   PTCLDY    34  26  72 SE8       30.12R WCI  27
BLAIR          CLEAR     38  24  55 S5        30.09F WCI  35
FREMONT        CLEAR     33  25  74 CALM      30.10F
PLATTSMOUTH    PTCLDY    40  22  47 SW5       30.12R
$$



USA.gov is the U.S. government's official web portal to all federal, state and local government web resources and services.